SYRACUSE 4A

Last updated on Wed Oct 29 2025 00:02:50 GMT+0000 (Coordinated Universal Time)

1 49333U 21095B 25301.05295569 .00000146 00000+0 00000+0 0 9990 2 49333 0.0151 271.4390 0001561 296.7063 253.1009 1.00269135 15635
UTC large
Height (km)
Speed (km/s)
/
Latitude / Longitude
Inclination (degrees)
Orbital Period (minutes)
Azimuth
Elevation
Range (km)
Doppler Factor

Next 0 passes for location: London (51.5072 / 0.1276)

Sorry there are no passes over London.